CFC7890 KAPA-KASE

Flight info

Callsign CFC7890
Flight time N/A
Altitude 26000
Route WNGSS1 WNGSS BAYLR MMARY MMARY1
Aircraft CL60/M-SADE3FGHIJ3J4J7P2RWXY/HB1D1

Departure

Time 2026-04-22 10:19
Airport Centennial Airport (KAPA)

Arrival

Time N/A
Airport Aspen-Pitkin County Airport (Sardy Field) (KASE)
Time Latitude Longitude Altitude Speed Heading
2026-04-22 09:49 39.57984 -104.84899 5804 ft 0 kts 270°
2026-04-22 10:11 39.57993 -104.84916 5804 ft 6 kts 325°
2026-04-22 10:12 39.57996 -104.84918 5804 ft 0 kts 333°
2026-04-22 10:13 39.57997 -104.84920 5804 ft 0 kts 332°
2026-04-22 10:15 39.58013 -104.84927 5803 ft 6 kts 343°
2026-04-22 10:15 39.58060 -104.84939 5801 ft 9 kts 331°
2026-04-22 10:15 39.58105 -104.84994 5799 ft 12 kts 358°
2026-04-22 10:16 39.58222 -104.84998 5792 ft 21 kts 357°
2026-04-22 10:16 39.58352 -104.85004 5783 ft 19 kts 359°
2026-04-22 10:16 39.58405 -104.85013 5780 ft 4 kts 317°
2026-04-22 10:16 39.58410 -104.85023 5780 ft 0 kts 287°
2026-04-22 10:17 39.58410 -104.85027 5780 ft 3 kts 279°
2026-04-22 10:17 39.58408 -104.85114 5778 ft 3 kts 258°
2026-04-22 10:17 39.58372 -104.85145 5781 ft 6 kts 190°
2026-04-22 10:18 39.58359 -104.85146 5782 ft 0 kts 175°
2026-04-22 10:18 39.58215 -104.85139 5790 ft 66 kts 177°
2026-04-22 10:18 39.57431 -104.85107 5844 ft 150 kts 178°
2026-04-22 10:18 39.56276 -104.85013 6401 ft 179 kts 175°
2026-04-22 10:19 39.55013 -104.84803 7344 ft 191 kts 173°
2026-04-22 10:19 39.53592 -104.84516 7961 ft 227 kts 171°
2026-04-22 10:19 39.51984 -104.84295 9021 ft 241 kts 181°
2026-04-22 10:19 39.50399 -104.84817 10362 ft 239 kts 211°
2026-04-22 10:20 39.49240 -104.86308 11583 ft 244 kts 238°
2026-04-22 10:20 39.48683 -104.88373 12747 ft 253 kts 262°
2026-04-22 10:20 39.48807 -104.90659 13989 ft 256 kts 274°
2026-04-22 10:20 39.49049 -104.92875 15359 ft 250 kts 273°
2026-04-22 10:21 39.49256 -104.95184 16150 ft 268 kts 273°
2026-04-22 10:21 39.49451 -104.97621 17105 ft 276 kts 272°
2026-04-22 10:21 39.49641 -105.00002 18550 ft 264 kts 273°
2026-04-22 10:21 39.49877 -105.02504 18850 ft 296 kts 273°
2026-04-22 10:22 39.50145 -105.05240 19519 ft 310 kts 273°
2026-04-22 10:22 39.50394 -105.07903 21088 ft 294 kts 273°
2026-04-22 10:22 39.50650 -105.10609 21655 ft 312 kts 273°
2026-04-22 10:22 39.50919 -105.13537 21925 ft 338 kts 273°
2026-04-22 10:23 39.51204 -105.16618 22481 ft 353 kts 274°
2026-04-22 10:23 39.51510 -105.19950 22535 ft 382 kts 274°
2026-04-22 10:23 39.51836 -105.23495 22584 ft 406 kts 274°
2026-04-22 10:23 39.52177 -105.27251 22919 ft 413 kts 273°
2026-04-22 10:24 39.52470 -105.30901 23016 ft 407 kts 272°
2026-04-22 10:24 39.52767 -105.34560 23020 ft 402 kts 273°
2026-04-22 10:24 39.53081 -105.38120 23026 ft 391 kts 272°
2026-04-22 10:24 39.53368 -105.41658 23027 ft 390 kts 272°
2026-04-22 10:25 39.53647 -105.44832 23035 ft 376 kts 274°
2026-04-22 10:25 39.53954 -105.48161 23038 ft 366 kts 271°
2026-04-22 10:25 39.54220 -105.51481 23043 ft 367 kts 272°
2026-04-22 10:25 39.54493 -105.54825 23049 ft 369 kts 272°
2026-04-22 10:26 39.54768 -105.58160 23057 ft 370 kts 272°
2026-04-22 10:26 39.55033 -105.61491 23064 ft 370 kts 270°
2026-04-22 10:26 39.55148 -105.64835 23064 ft 369 kts 266°
2026-04-22 10:26 39.55127 -105.68187 23072 ft 363 kts 265°
2026-04-22 10:27 39.55105 -105.71407 23080 ft 341 kts 265°
2026-04-22 10:27 39.55087 -105.74384 23086 ft 320 kts 265°
2026-04-22 10:27 39.55068 -105.77220 23090 ft 300 kts 265°
2026-04-22 10:27 39.55017 -105.79942 23095 ft 299 kts 262°
2026-04-22 10:28 39.54980 -105.82590 23100 ft 284 kts 265°
2026-04-22 10:28 39.54966 -105.85075 23102 ft 266 kts 264°
2026-04-22 10:28 39.54948 -105.87439 23103 ft 262 kts 264°
2026-04-22 10:28 39.54922 -105.89981 23115 ft 297 kts 264°
2026-04-22 10:29 39.54889 -105.92813 23120 ft 329 kts 265°
2026-04-22 10:29 39.54852 -105.95956 23027 ft 360 kts 265°
2026-04-22 10:29 39.54810 -105.99384 22609 ft 390 kts 265°
2026-04-22 10:29 39.54768 -106.02953 22440 ft 401 kts 265°
2026-04-22 10:30 39.54725 -106.06654 22379 ft 405 kts 265°
2026-04-22 10:30 39.54680 -106.10321 22172 ft 406 kts 265°
2026-04-22 10:30 39.54636 -106.13969 21690 ft 393 kts 265°
2026-04-22 10:30 39.54593 -106.17456 21203 ft 382 kts 265°
2026-04-22 10:31 39.54548 -106.20905 20698 ft 371 kts 265°
2026-04-22 10:31 39.54503 -106.24199 20224 ft 361 kts 265°
2026-04-22 10:31 39.54456 -106.27497 19735 ft 352 kts 265°
2026-04-22 10:31 39.54409 -106.30674 19139 ft 347 kts 265°
2026-04-22 10:32 39.54362 -106.33764 18734 ft 337 kts 265°
2026-04-22 10:32 39.54315 -106.36854 18263 ft 337 kts 264°
2026-04-22 10:32 39.54266 -106.39894 17819 ft 335 kts 265°
2026-04-22 10:32 39.54225 -106.42960 17362 ft 333 kts 266°
2026-04-22 10:33 39.54283 -106.45969 16920 ft 331 kts 268°
2026-04-22 10:33 39.54361 -106.48976 16473 ft 324 kts 268°
2026-04-22 10:33 39.54435 -106.51879 16038 ft 316 kts 268°
2026-04-22 10:33 39.54438 -106.52012 16017 ft 316 kts 268°